STARLINK-30107 (56287 NORAD) Tracking and Keplerian Element Data

This shows tracking and keplerian element data for the satellite.

Feedback or suggestion? Click here.




ElementValue
Catalog56287
NameSTARLINK-30107
Epoch Orbit324
Epoch Day127.25001157
Epoch Year2023
RAAN97.7691
Inclination43.0024
Eccentricity0.0002427
Argument of Perigee271.6208
Mean Anonmoly113.9052
Mean Motion15.39998165
Decay Rate-0.01504163
L11 56287U 23056B 23127.25001157 -.01504163 00000+0 -40809-1 0 9993
L22 56287 43.0024 97.7691 0002427 271.6208 113.9052 15.39998165 3249



Live tracking and technical data element details for STARLINK-30107 (NORAD 56287). STARLINK-30107 can be tracked NOW for your location showing map with azimuth and elevation plus other details from your city location.







IsCatalogInMostPopularTable: catalog: 56287, numindb: 5
Update: records affected: 1



GetName: 56287 STARLINK-30107

Hit Count: updated at: Wed, 07 Jun 2023 08:40:23 GMT